• Processing (Info)

  • MPEC 2014-E77 : 2014 EH45

    The following Minor Planet Electronic Circular may be linked-to from your own Web pages, but must not otherwise be redistributed electronically.

    A form allowing access to any MPEC is at the bottom of this page.


    Read MPEC 2014-E76 Read MPEC 2014-E78


    M.P.E.C. 2014-E77                                Issued 2014 Mar. 12, 18:56 UT
    
         The Minor Planet Electronic Circulars contain information on unusual
             minor planets and routine data on comets.  They are published
       on behalf of Commission 20 of the International Astronomical Union by the
              Minor Planet Center, Smithsonian Astrophysical Observatory,
                              Cambridge, MA 02138, U.S.A.
    
                 Prepared using the Tamkin Foundation Computer Network
    
                                  MPC@CFA.HARVARD.EDU
                URL https://www.minorplanetcenter.net/    ISSN 1523-6714
    
                                       2014 EH45
    
    Observations:
         K14E45H* C2014 03 11.48178 13 19 28.75 +09 56 24.5          19.7 VqEE077G96
         K14E45H  C2014 03 11.48686 13 19 27.78 +09 56 06.1          20.5 VqEE077G96
         K14E45H  C2014 03 11.49193 13 19 26.82 +09 55 49.4          20.6 VqEE077G96
         K14E45H  C2014 03 11.49700 13 19 25.83 +09 55 32.2          20.6 VqEE077G96
         K14E45H  C2014 03 11.51283 13 19 22.87 +09 54 38.3          21.4 VqEE077G96
         K14E45H  C2014 03 11.51332 13 19 22.80 +09 54 36.9          21.3 VqEE077G96
         K14E45H  C2014 03 11.51382 13 19 22.73 +09 54 35.3          20.9 VqEE077G96
         K14E45H  C2014 03 11.51431 13 19 22.59 +09 54 33.6          21.2 VqEE077G96
         K14E45H  C2014 03 11.51481 13 19 22.52 +09 54 31.7          21.0 VqEE077G96
         K14E45H KC2014 03 12.26182 13 17 11.24 +09 11 32.8          20.0 RoEE077291
         K14E45H KC2014 03 12.26390 13 17 10.84 +09 11 25.4          20.2 RoEE077291
         K14E45H KC2014 03 12.26598 13 17 10.40 +09 11 17.9          20.7 RoEE077291
         K14E45H  C2014 03 12.38637 13 16 46.23 +09 04 11.9          20.2 RoEE077926
         K14E45H  C2014 03 12.39613 13 16 44.24 +09 03 37.1          20.2 RoEE077926
         K14E45H  C2014 03 12.40434 13 16 42.56 +09 03 07.6          20.4 RoEE077926
    
    Observer details:
    291 LPL/Spacewatch II.  Observer T. H. Bressi.  1.8-m f/2.7 reflector + CCD.
    926 Tenagra II Observatory.  Observers M. Schwartz, P. R. Holvorcem.  0.81-m
        f/7 Ritchey-Chretien + CCD.
    G96 Mt. Lemmon Survey.  Observer R. E. Hill.  Measurers E. J. Christensen,
        A. R. Gibbs, A. D. Grauer, R. E. Hill, J. A. Johnson, R. A. Kowalski,
        S. M. Larson, F. C. Shelly.  1.5-m reflector + CCD.
    
    Orbital elements:
    2014 EH45                                                Earth MOID = 0.1196 AU
    Epoch 2013 Nov. 4.0 TT = JDT 2456600.5                  MPC
    M 188.09797              (2000.0)            P               Q
    n   0.75735744     Peri.  270.27317     +0.03742168     +0.99921728
    a   1.1919795      Node     2.01062     -0.70793077     +0.03556521
    e   0.1995155      Incl.   21.43812     -0.70528976     +0.01731868
    P   1.30           H   22.7           G   0.15           U   9
    Residuals in seconds of arc
    140311 G96  0.6+  0.8+    140311 G96  0.1-  0.0     140312 291  0.2+  0.1+
    140311 G96  0.3+  0.4-    140311 G96  0.3+  0.1+    140312 291  0.3-  0.1-
    140311 G96  0.2+  0.0     140311 G96  0.4-  0.0     140312 926  0.1+  0.1-
    140311 G96  0.4-  0.0     140311 G96  0.1-  0.2-    140312 926  0.1+  0.0
    140311 G96  0.4-  0.3-    140312 291  0.0   0.2+    140312 926  0.0   0.2-
    
    Ephemeris:
    2014 EH45                a,e,i = 1.19, 0.20, 21                  q = 0.9542
    Date    TT    R. A. (2000) Decl.     Delta      r     Elong.  Phase     V
    2014 02 10    13 41 54.5 +22 42 54   0.4362  1.2675   121.0    41.9    23.0
    ...
    2014 02 25    13 42 50.0 +18 41 40   0.3124  1.2237   132.8    36.4    22.1
    ...
    2014 03 05    13 34 06.0 +14 51 13   0.2514  1.1990   141.6    30.9    21.4
    ...
    2014 03 11    13 20 52.8 +10 23 15   0.2099  1.1801   150.3    24.7    20.8
    2014 03 12    13 17 57.7 +09 27 13   0.2034  1.1769   151.9    23.4    20.7
    2014 03 13    13 14 48.5 +08 27 15   0.1971  1.1737   153.7    22.1    20.6
    ...
    2014 03 19    12 50 12.1 +00 50 56   0.1635  1.1546   165.7    12.3    19.8
    ...
    2014 03 27    11 58 13.8 -14 11 07   0.1343  1.1289   166.8    11.6    19.3
    ...
    2014 04 11    09 27 32.6 -42 05 00   0.1467  1.0816   119.4    53.8    20.7
    
    A. U. Tomatic                (C) Copyright 2014 MPC           M.P.E.C. 2014-E77
    

    Read MPEC 2014-E76 Read MPEC 2014-E78


    MPEC number:

    Enter an MPEC number in one of the following forms:

    • 1997-B01 (the full form)
    • J97B01 (the packed version of the full form)
    • B01 (the abbreviated form)